Weather History for Charleroi, Belgium

Change the Weather History Date:

Sunday, December 23, 2012

  Actual Average Record
Temperature  
Mean Temperature 50 °F -  
Max Temperature 54 °F 40 °F 54 °F (2012)
Min Temperature 45 °F 31 °F 15 °F (2001)
Degree Days  
Heating Degree Days 16    
Moisture  
Dew Point 49 °F    
Average Humidity 90    
Maximum Humidity 100    
Minimum Humidity 77    
Precipitation  
Precipitation 0.08 in - - ()
Sea Level Pressure  
Sea Level Pressure 29.76 in    
Wind  
Wind Speed 18 mph ()    
Max Wind Speed 25 mph    
Max Gust Speed 37 mph    
Visibility 5.1 miles    
Events Rain    
Averages and records for this station are not official NWS values.
T = Trace of Precipitation, MM = Missing Value Source: Averaged Metar Reports

Daily Weather History Graph

Daily Weather History Graph

Search for Another Location

Airport:

Trip Planner

Search our weather history database for the weather conditions in past years. The results will help you decide how hot, cold, wet, or windy it might be!

Date:

Astronomy

Dec. 23, 2012 Rise Set
Actual Time 8:41 AM CET 4:41 PM CET
Civil Twilight 8:02 AM CET 5:20 PM CET
Nautical Twilight 7:20 AM CET 6:02 PM CET
Astronomical Twilight 6:40 AM CET 6:42 PM CET
Moon 1:37 PM CET (12/23) 3:53 AM CET (12/23)
Length of Visible Light 9h 18m
Length of Day
8h 00m
Waxing Gibbous, 79% of the Moon is Illuminated
Dec 23
Waxing Gibbous
Dec 28
Full
Jan 5
Last Quarter
Jan 11
New
Jan 19
First Quarter

Hourly Weather History & Observations

Time (CET) Temp. Windchill Dew Point Humidity Pressure Visibility Wind Dir Wind Speed Gust Speed Precip Events Conditions
12:20 AM 53.6 °F - 51.8 °F 94% 29.68 in 6.2 mi SW 20.7 mph - N/A   Mostly Cloudy
12:50 AM 53.6 °F - 51.8 °F 94% 29.68 in 6.2 mi SW 21.9 mph - N/A   Mostly Cloudy
1:00 AM 54 °F - 52 °F 89% 29.70 in 7 mi SW 22.4 mph - - Rain Light Rain
1:20 AM 53.6 °F - 51.8 °F 94% 29.68 in 4.3 mi WSW 21.9 mph - N/A   Mostly Cloudy
1:50 AM 53.6 °F - 51.8 °F 94% 29.71 in 1.6 mi SW 21.9 mph - N/A Rain Light Rain
2:20 AM 53.6 °F - 51.8 °F 94% 29.71 in 1.6 mi SW 21.9 mph - N/A Rain Light Rain
2:50 AM 53.6 °F - 51.8 °F 94% 29.71 in 6.2 mi SW 21.9 mph - N/A   Mostly Cloudy
3:20 AM 53.6 °F - 50.0 °F 88% 29.71 in 6.2 mi SW 23.0 mph - N/A   Mostly Cloudy
3:50 AM 53.6 °F - 50.0 °F 88% 29.71 in 6.2 mi SW 24.2 mph 35.7 mph N/A   Mostly Cloudy
4:00 AM 53 °F - 51 °F 89% 29.72 in 6 mi SW 24.6 mph - -   Partly Cloudy
4:20 AM 53.6 °F - 50.0 °F 88% 29.71 in 6.2 mi SW 21.9 mph 33.4 mph N/A   Mostly Cloudy
4:50 AM 53.6 °F - 50.0 °F 88% 29.71 in 6.2 mi SW 23.0 mph - N/A   Mostly Cloudy
5:20 AM 53.6 °F - 50.0 °F 88% 29.71 in 6.2 mi SW 21.9 mph - N/A   Mostly Cloudy
5:50 AM 53.6 °F - 50.0 °F 88% 29.71 in 6.2 mi SW 21.9 mph - N/A   Mostly Cloudy
6:20 AM 53.6 °F - 50.0 °F 88% 29.71 in 6.2 mi SW 21.9 mph - N/A   Mostly Cloudy
6:50 AM 53.6 °F - 50.0 °F 88% 29.71 in 6.2 mi SW 21.9 mph 33.4 mph N/A   Mostly Cloudy
7:00 AM 53 °F - 50 °F 87% 29.73 in 6 mi SW 22.4 mph - -   Partly Cloudy
7:20 AM 53.6 °F - 50.0 °F 88% 29.71 in 6.2 mi SW 23.0 mph - N/A   Mostly Cloudy
7:50 AM 53.6 °F - 50.0 °F 88% 29.71 in 6.2 mi SW 21.9 mph - N/A   Mostly Cloudy
8:20 AM 53.6 °F - 50.0 °F 88% 29.74 in 6.2 mi SW 21.9 mph 34.5 mph N/A   Mostly Cloudy
8:50 AM 53.6 °F - 50.0 °F 88% 29.74 in 6.2 mi SW 21.9 mph - N/A   Mostly Cloudy
9:20 AM 53.6 °F - 50.0 °F 88% 29.74 in 6.2 mi SW 21.9 mph - N/A   Mostly Cloudy
9:50 AM 53.6 °F - 48.2 °F 82% 29.77 in 6.2 mi SW 24.2 mph 36.8 mph N/A   Mostly Cloudy
10:00 AM 54 °F - 49 °F 77% 29.77 in 12 mi SW 24.6 mph - -   Mostly Cloudy
10:20 AM 53.6 °F - 48.2 °F 82% 29.74 in 6.2 mi SW 23.0 mph - N/A   Mostly Cloudy
10:50 AM 53.6 °F - 48.2 °F 82% 29.77 in 6.2 mi SW 24.2 mph - N/A   Mostly Cloudy
11:20 AM 53.6 °F - 48.2 °F 82% 29.77 in 6.2 mi SW 21.9 mph - N/A   Mostly Cloudy
11:50 AM 53.6 °F - 50.0 °F 88% 29.77 in 6.2 mi SW 21.9 mph - N/A   Mostly Cloudy
12:20 PM 53.6 °F - 50.0 °F 88% 29.77 in 4.3 mi SW 21.9 mph - N/A Rain Light Rain
12:50 PM 53.6 °F - 51.8 °F 94% 29.77 in 1.7 mi SW 16.1 mph - N/A Rain Light Rain
1:00 PM 53 °F - 51 °F 91% 29.78 in 2 mi SW 15.7 mph - - Rain Light Rain
1:20 PM 51.8 °F - 51.8 °F 100% 29.77 in - SSW 15.0 mph - N/A Rain Light Rain
1:50 PM 53.6 °F - 50.0 °F 88% 29.74 in 2.8 mi SSW 16.1 mph - N/A Rain Light Rain
2:20 PM 53.6 °F - 51.8 °F 94% 29.74 in 1.9 mi SW 18.4 mph - N/A Rain Light Rain
2:50 PM 53.6 °F - 51.8 °F 94% 29.74 in 6.2 mi SW 18.4 mph - N/A   Mostly Cloudy
3:20 PM 53.6 °F - 51.8 °F 94% 29.74 in 6.2 mi SW 19.6 mph - N/A   Mostly Cloudy
3:50 PM 53.6 °F - 51.8 °F 94% 29.74 in 6.2 mi SW 18.4 mph - N/A   Mostly Cloudy
4:00 PM 54 °F - 51 °F 86% 29.76 in 14 mi SW 17.9 mph - -   Partly Cloudy
4:20 PM 50.0 °F - 48.2 °F 94% 29.77 in - West 15.0 mph 27.6 mph N/A Rain Rain
4:50 PM 50.0 °F - 48.2 °F 94% 29.80 in 3.7 mi West 11.5 mph - N/A Rain Light Rain
5:20 PM 48.2 °F - 46.4 °F 93% 29.80 in 3.7 mi WSW 10.4 mph - N/A Rain Light Rain
5:50 PM 48.2 °F - 46.4 °F 93% 29.80 in 3.7 mi WSW 10.4 mph - N/A Rain Light Rain
6:20 PM 48.2 °F - 46.4 °F 93% 29.80 in 6.2 mi WSW 9.2 mph - N/A   Mostly Cloudy
6:50 PM 48.2 °F - 46.4 °F 93% 29.80 in 5.6 mi WSW 13.8 mph - N/A Rain Light Rain Showers
7:00 PM 49 °F - 46 °F 87% 29.82 in 6 mi WSW 13.4 mph - - Rain Light Rain Showers
7:20 PM 48.2 °F - 46.4 °F 93% 29.80 in 5.6 mi SW 13.8 mph - N/A   Mostly Cloudy
7:50 PM 48.2 °F - 46.4 °F 93% 29.80 in 3.7 mi WSW 12.7 mph - N/A   Light Drizzle
8:20 PM 48.2 °F - 46.4 °F 93% 29.80 in 3.7 mi WSW 10.4 mph - N/A   Light Drizzle
8:50 PM 48.2 °F - 46.4 °F 93% 29.80 in 1.9 mi SW 6.9 mph - N/A Rain Rain
9:20 PM 48.2 °F - 46.4 °F 93% 29.80 in 1.9 mi SW 11.5 mph - N/A Rain Rain
9:50 PM 48.2 °F - 46.4 °F 93% 29.83 in 1.9 mi WSW 8.1 mph - N/A Rain Rain
10:00 PM 48 °F - 47 °F 95% 29.83 in 2 mi WSW 8.9 mph - - Rain Light Rain
10:20 PM 48.2 °F - 46.4 °F 93% 29.83 in 2.5 mi SW 5.8 mph - N/A Rain Rain
10:50 PM 48.2 °F - 46.4 °F 93% 29.83 in 2.5 mi SW 9.2 mph - N/A Rain Rain
11:20 PM 46.4 °F 43.5 °F 44.6 °F 93% 29.83 in 2.5 mi West 5.8 mph - N/A Rain Light Drizzle
11:50 PM 46.4 °F 45.2 °F 44.6 °F 93% 29.83 in 2.5 mi WNW 3.5 mph - N/A Rain Light Drizzle